Meteo Giornale » Osservazioni meteo Stati Uniti (USA) » Odessa-Schlemeyer Fld
ore: 16:53 - Osservazioni Meteo Odessa-Schlemeyer Fld
Lat. 31° 55' N Lon. 102° 23' W Alt. 914 metri s.l.m.
36 °C
Sereno
Temp. 24 Ore
25 °C
36 °C
Sud
22.2 Km/h
Dew point 13 °C
Umidità 25 %
Visibilità 10 Km
Il sole sorge alle ore 07:25
Il sole tramonta alle ore 20:13
| Data e Ora | Cielo e Fenomeni | T °C | DP °C | Um. % | Pres. hPa | Vis. km | Vento km/h | |
|---|---|---|---|---|---|---|---|---|
| Oggi h: 16:53 | Sereno | 36 | 13 | 25 | 1015 | 10 | S 22.2 | |
| Oggi h: 15:53 | Sereno | 36 | 13 | 25 | 1016 | 10 | S/SE 18.5 | |
| Oggi h: 14:53 | Poco Nuvoloso | 36 | 14 | 26 | 1017 | 10 | S 22.2 | |
| Oggi h: 13:53 | Sereno | 34 | 14 | 30 | 1018 | 10 | S/SE 16.7 | |
| Oggi h: 12:53 | Sereno | 33 | 14 | 31 | 1018 | 10 | S/SE 20.3 | |
| Oggi h: 11:53 | Sereno | 31 | 17 | 43 | 1019 | 10 | S 22.2 | |
| Oggi h: 10:53 | Sereno | 29 | 17 | 48 | 1019 | 10 | S 18.5 | |
| Oggi h: 09:53 | Sereno | 27 | 17 | 54 | 1019 | 10 | S 24 | |
| Oggi h: 08:53 | Sereno | 26 | 17 | 57 | 1019 | 10 | S/SE 24 | |
| Oggi h: 07:53 | Sereno | 25 | 17 | 61 | 1019 | 10 | S/SE 18.5 | |
| Oggi h: 06:53 | Sereno | 26 | 17 | 57 | 1018 | 10 | S/SE 20.3 | |
| Oggi h: 05:53 | Poco Nuvoloso | 26 | 16 | 54 | 1018 | 10 | S/SE 22.2 | |
| Oggi h: 04:53 | Sereno | 27 | 15 | 47 | 1018 | 10 | S/SE 20.3 | |
| Oggi h: 03:53 | Sereno | 27 | 16 | 50 | 1018 | 10 | S/SE 20.3 | |
| Oggi h: 02:53 | Sereno | 27 | 16 | 50 | 1017 | 10 | S/SE 18.5 | |
| Oggi h: 01:53 | Sereno | 28 | 14 | 42 | 1017 | 10 | S/SE 18.5 | |
| Oggi h: 00:53 | Sereno | 29 | 13 | 37 | 1017 | 10 | S 14.8 | |
| Ieri h: 23:53 | Sereno | 29 | 13 | 37 | 1017 | 10 | S 16.7 | |
| Ieri h: 22:53 | Sereno | 31 | 13 | 33 | 1017 | 10 | S/SE 25.9 | |
| Ieri h: 21:53 | Sereno | 32 | 12 | 29 | 1016 | 10 | SE 27.8 | |
| Ieri h: 20:53 | Sereno | 33 | 11 | 26 | 1015 | 10 | SE 20.3 | |
| Ieri h: 19:53 | Sereno | 34 | 12 | 26 | 1014 | 10 | SE 25.9 | |
| Ieri h: 18:53 | Poco Nuvoloso | 35 | 13 | 26 | 1014 | 10 | SE 24 | |
| Ieri h: 17:53 | Poco Nuvoloso | 36 | 12 | 23 | 1014 | 10 | SE 20.3 | |



